Location: Les Salelles
(44.4192°N, 4.1044°E)
Time: 12:32:18
(UTC+00:00)

Cosmos 1818 - Pass Details

Date: 20 January 2021
Orbit: 773 x 801 km, 65.0° (Epoch: 06 March)

Event Time Altitude Azimuth Distance (km) Brightness Sun altitude
Rises 18:24:11 0° 214° (SSW) 3,261 7.4 -19.0°
Reaches altitude 10° 18:26:35 10° 214° (SW) 2,340 6.6 -19.4°
Maximum altitude 18:31:59 87° 305° (NW) 798 3.5 -20.3°
Enters shadow 18:34:51 29° 33° (NNE) 1,423 4.5 -20.8°
